Helicity
49 87 71 91 104 114 222 179 158 142 141 104 69 44 36 26 1 -33 -35 -40 -53 -23 -13 24 122 83 77 43 76 57 75 66 35
41 81 51 91 101 118 149 165 174 149 128 95 58 51 59 40 10 -41 -26 -35 -5 -21 20 55 126 90 66 76 69 69 72 47 84
31 29 48 60 114 129 125 147 144 114 106 93 63 63 68 48 13 -4 -38 1 13 29 63 47 179 132 96 122 118 157 100 52 79
31 43 52 31 128 129 149 140 155 118 93 77 77 99 99 74 54 49 40 33 61 72 67 140 160 187 155 176 119 136 262 43 43
44 60 72 49 51 106 119 121 169 152 102 78 84 124 140 135 107 105 112 111 132 116 158 195 169 188 190 249 209 272 254 100 63
1 30 35 63 60 98 139 136 140 153 123 84 83 78 102 108 110 145 164 195 190 209 193 255 186 240 266 375 222 208 156 230 140
32 49 62 35 72 95 192 196 154 192 151 82 79 88 71 102 127 144 185 222 255 251 327 357 333 371 382 452 337 316 136 148 207
24 21 77 38 38 107 228 193 159 200 141 102 78 117 84 114 147 119 151 199 277 299 341 339 403 460 528 543 454 408 283 196 270
27 33 56 42 64 50 244 134 113 190 151 120 75 145 108 141 179 156 187 232 281 301 263 247 320 466 545 549 403 314 313 227 224
50 26 14 87 71 63 178 100 94 112 129 103 151 108 128 163 233 252 237 229 227 290 250 220 336 468 484 464 405 353 224 182 184
61 52 12 93 78 87 164 105 94 106 103 119 148 157 180 208 239 238 215 208 226 220 143 168 216 281 396 366 200 196 213 198 139
35 21 39 118 86 99 189 129 181 191 133 127 182 201 172 158 151 148 122 113 93 92 112 159 214 225 349 233 140 174 199 206 144
114 83 52 114 98 145 182 206 196 179 177 176 200 184 155 125 103 102 125 87 79 102 123 161 191 156 189 137 111 159 172 139 133
63 68 139 196 192 277 225 236 197 202 209 222 200 201 185 160 135 105 69 73 97 130 155 209 175 144 122 91 96 110 138 154 126
70 116 169 148 186 204 208 265 279 316 267 308 293 227 172 161 112 72 97 95 106 166 214 190 157 137 97 73 75 127 146 158 74
147 167 198 234 215 303 291 272 282 354 356 294 256 209 170 157 137 130 178 179 228 258 202 169 122 109 73 92 74 146 153 109 65
146 236 334 292 242 420 447 356 316 236 189 174 189 178 157 134 151 190 233 255 224 192 175 134 110 118 132 106 145 121 127 129 105
407 448 352 251 280 328 308 263 217 155 124 110 121 93 119 158 171 209 251 282 211 186 221 145 123 111 89 105 128 114 111 105 40
360 378 390 354 279 223 176 132 116 101 86 72 89 106 132 151 192 202 191 189 215 262 207 171 195 204 142 128 140 204 241 211 179
341 223 174 152 109 68 66 66 73 62 76 89 87 115 154 137 100 105 85 109 115 114 171 204 206 156 147 124 137 156 191 188 177
Wind_Speed
15 22 39 49 47 43 38 37 35 35 31 26 26 25 21 17 17 16 16 14 9 11 11 11 15 12 11 12 18 22 26 26 26
38 15 36 49 46 47 46 41 40 38 31 31 30 30 21 21 18 21 21 18 17 15 15 14 9 16 9 12 16 21 25 23 24
25 19 23 44 42 44 43 44 43 44 39 32 32 29 24 21 23 24 25 17 19 22 23 22 17 13 11 10 11 17 26 26 20
22 21 16 34 40 43 41 41 41 44 43 38 35 33 28 26 28 32 29 33 32 26 27 15 14 12 9 6 5 23 30 35 30
64 13 16 19 30 35 39 43 42 40 41 46 43 33 28 32 33 34 35 35 29 26 26 20 21 15 13 12 4 6 15 9 22
64 46 21 16 19 30 39 41 42 42 42 47 44 40 38 35 36 36 33 28 28 31 28 25 22 20 18 12 10 5 9 20 20
47 39 36 33 21 22 33 38 40 39 42 47 43 39 41 37 36 36 31 29 30 29 29 27 27 23 20 16 15 12 13 20 19
67 52 35 34 23 20 27 33 36 38 37 39 37 36 39 38 32 34 30 29 30 26 26 28 26 25 20 19 19 20 20 21 18
71 72 45 40 34 30 27 33 33 35 37 34 36 38 41 32 29 31 32 30 25 21 23 24 25 24 22 23 25 26 24 22 18
89 86 74 44 41 32 27 34 30 30 33 32 31 37 33 26 24 21 23 21 20 21 21 22 24 25 24 28 30 28 25 23 17
81 82 83 46 40 32 29 31 27 25 26 31 29 26 26 25 22 19 16 16 17 17 17 18 20 22 25 32 31 28 24 21 19
69 68 64 47 37 30 27 32 27 24 24 23 22 22 20 21 19 17 15 15 14 14 17 19 19 22 29 29 27 26 21 20 21
65 61 60 41 32 29 29 30 27 26 24 22 21 18 16 14 13 11 10 12 14 17 20 21 24 26 28 25 28 27 17 15 17
60 59 41 33 31 29 30 30 26 24 22 20 16 13 11 9 8 9 11 15 18 21 25 27 28 30 27 25 27 24 14 15 18
54 46 35 31 30 26 24 25 25 22 19 14 11 10 8 8 10 12 17 18 20 24 26 29 30 27 27 31 25 25 20 17 15
37 38 29 26 28 22 19 18 17 17 14 11 11 10 10 13 15 19 19 18 21 27 30 30 26 27 28 35 31 31 25 20 21
23 25 21 21 21 19 15 12 10 7 8 10 12 16 17 18 17 21 22 23 25 27 25 26 28 31 36 32 26 22 26 26 23
19 19 17 17 17 13 11 9 10 11 12 12 14 15 18 16 18 21 23 29 29 31 33 32 33 30 27 28 29 27 22 27 17
17 16 12 11 11 11 10 10 12 14 16 14 14 17 15 18 20 21 21 24 29 34 32 31 32 33 32 30 28 19 20 22 24
10 10 7 7 12 12 15 16 18 19 19 18 15 19 20 20 22 20 19 23 24 26 28 30 32 31 30 26 20 20 21 22 25
Wind_Direction
284 183 185 185 186 185 182 181 180 178 177 186 186 186 186 180 175 171 163 157 117 121 104 80 70 85 78 54 26 14 6 2 358
281 221 184 185 183 182 180 179 180 180 179 177 179 181 186 182 178 174 169 164 160 148 138 119 83 119 66 26 11 1 355 357 350
282 270 193 185 185 182 181 180 178 177 178 181 180 184 189 192 184 180 177 170 168 168 160 164 138 134 135 98 21 6 338 332 344
262 276 218 186 185 184 183 181 180 179 180 181 183 186 189 189 185 181 183 185 181 179 176 165 168 165 166 139 50 343 348 309 325
257 262 235 214 195 191 185 185 182 183 182 182 183 185 191 189 186 186 187 189 191 190 192 194 194 195 202 193 177 81 43 344 319
262 273 270 252 232 204 195 189 186 184 184 183 181 181 182 186 188 191 196 199 199 198 202 203 210 213 217 220 224 288 339 349 315
266 275 283 279 247 224 208 196 190 186 184 181 180 180 183 186 190 193 197 201 203 209 208 214 218 223 228 236 249 275 306 328 317
263 271 274 279 262 239 221 205 197 190 187 185 184 183 183 188 191 190 195 203 207 210 219 225 231 235 248 249 262 285 298 315 309
260 264 276 275 273 259 234 211 202 193 192 193 190 185 188 191 191 190 196 203 210 223 234 241 245 253 261 266 277 287 297 308 300
260 264 270 273 270 252 234 212 212 206 198 200 199 191 189 195 194 217 208 212 224 236 247 248 251 258 266 283 291 293 290 291 282
262 261 265 267 268 246 231 213 206 207 202 202 199 210 199 194 202 209 226 237 241 260 259 260 260 273 282 298 298 297 296 288 275
267 259 260 264 259 234 220 210 208 206 200 204 210 228 222 202 203 211 225 238 254 267 278 285 280 281 296 299 299 304 290 283 276
259 265 262 256 245 220 214 215 204 204 203 206 214 216 216 213 207 216 239 279 287 294 298 302 308 301 307 309 312 311 289 264 273
254 255 250 245 234 225 220 217 202 208 206 209 213 214 209 212 235 264 288 303 307 310 311 316 314 310 311 314 317 314 292 276 287
252 248 240 231 218 216 210 212 205 209 206 203 204 207 223 261 284 300 309 310 316 316 317 318 320 318 314 322 322 322 307 292 273
249 240 226 215 209 195 204 207 196 199 224 231 243 258 277 297 312 316 323 321 325 321 321 322 321 320 319 322 323 324 320 306 307
216 210 199 190 190 184 195 212 220 230 249 260 273 285 293 305 316 319 326 327 329 325 326 324 324 326 326 330 337 339 339 327 316
211 207 196 194 207 203 212 238 260 273 279 283 293 300 307 321 322 322 327 330 330 326 331 329 329 334 335 333 331 331 340 338 330
229 221 201 198 218 238 258 273 279 288 295 299 304 304 317 320 324 324 324 324 326 334 342 340 341 343 344 344 344 356 353 353 349
248 240 244 248 257 272 278 286 293 295 298 305 309 312 316 320 323 323 320 323 322 320 336 347 345 344 343 346 1 3 357 352 343